[[{"header":{"parameterUnit":"m.s-1","parameterCategory":1,"la1":30.2991,"la2":30.254,"lo1":-89.0895,"lo2":-89.0444,"dy":0.0017,"dx":0.0017,"nx":28,"ny":28,"refTime":"2024-12-06T03:00:00:Z","depth":0,"parameterNumber":2,"parameterNumberName":"U-component_of_WINDS"},"data":[0,0,0,0,0,0,0,0,0,0,0,0,0,0,0,0,0,0,0,0,0,0,0,0,0,0,0,0,0,0,0,0,0,0,0,0,0,0,0,0,0,0,0,0,0,0,0,0,0,0,0,0,0,0,0,0,0,0,-0.4083,-0.4083,0,-0.4142,-0.4142,-0.4143,-0.4143,-0.4143,-0.4142,-0.4141,-0.4204,-0.4206,-0.4208,0,0,0,0,0,0,0,0,0,0,0,0,0,-0.3971,-0.3973,-0.4083,-0.4083,-0.4084,-0.4142,-0.4143,-0.4143,-0.4144,-0.4143,-0.4142,-0.4141,-0.4203,-0.4206,-0.4208,0,0,0,0,0,0,0,0,0,0,0,0,0,-0.4024,-0.3974,-0.4082,-0.4091,-0.4092,-0.4142,-0.4143,-0.4144,-0.4144,-0.4143,-0.4142,-0.414,-0.4202,-0.4205,-0.4209,-0.4254,0,0,-0.422,-0.4221,0,0,0,0,0,0,0,0,-0.4021,-0.4028,-0.4089,-0.4091,-0.4092,-0.4134,-0.4126,-0.4181,-0.4144,-0.4124,-0.4141,-0.414,-0.4182,-0.4187,-0.42,-0.4257,-0.4259,-0.422,-0.4222,-0.4224,-0.4225,0,0,0,0,0,0,0,-0.4017,-0.4026,-0.4106,-0.409,-0.4092,-0.4093,-0.4099,-0.4136,-0.4159,-0.4126,-0.4126,-0.4133,-0.4182,-0.4197,-0.4202,-0.426,-0.422,-0.4223,-0.4225,-0.4227,-0.4357,-0.4358,0,0,0,0,0,0,-0.4012,-0.4022,-0.4104,-0.4108,-0.4053,-0.4095,-0.4102,-0.4122,-0.4158,-0.4163,-0.4134,-0.4133,-0.4191,-0.4198,-0.4204,-0.426,-0.4224,-0.4227,-0.4229,-0.4356,-0.4357,-0.4359,0,0,0,0,0,0,-0.4009,-0.4019,-0.4102,-0.4065,-0.4076,-0.4099,-0.412,-0.4124,-0.4138,-0.4164,-0.4168,-0.4145,-0.4191,-0.4199,-0.4241,-0.4262,-0.4229,-0.4232,-0.4354,-0.4356,-0.4358,-0.4371,0,0,0,0,0,0,-0.4006,-0.4018,-0.4035,-0.4066,-0.4078,-0.4138,-0.4122,-0.4126,-0.4144,-0.4143,-0.4176,-0.418,-0.419,-0.4236,-0.4245,-0.4266,-0.4235,-0.4353,-0.4355,-0.4357,-0.4369,-0.4373,-0.4377,0,0,0,0,0,-0.4002,-0.4037,-0.4036,-0.4046,-0.4099,-0.4139,-0.4146,-0.4157,-0.4146,-0.4164,-0.418,-0.4179,-0.4258,-0.424,-0.425,-0.4273,-0.4351,-0.4354,-0.4357,-0.4367,-0.4372,-0.4377,0,0,0,0,0,0,-0.4009,-0.4041,-0.404,-0.4086,-0.411,-0.4139,-0.4162,-0.4162,-0.419,-0.4188,-0.4201,-0.4208,-0.4251,-0.4266,-0.4246,-0.4319,-0.4303,-0.4308,-0.4307,-0.4313,-0.4316,-0.4313,-0.4238,0,0,0,0,0,-0.4015,-0.4044,-0.4071,-0.4109,-0.412,-0.4139,-0.4157,-0.4163,-0.4188,-0.4199,-0.4218,-0.4243,-0.4274,-0.4294,-0.4323,-0.4371,-0.4378,-0.4391,-0.4395,-0.4398,-0.4403,-0.443,-0.4436,-0.4369,-0.4369,-0.4368,0,0,-0.403,-0.4051,-0.4069,-0.411,-0.413,-0.416,-0.4147,-0.418,-0.4203,-0.4204,-0.4245,-0.426,-0.4289,-0.4334,-0.4355,-0.4348,-0.4423,-0.4402,-0.4404,-0.4407,-0.4433,-0.444,-0.4445,-0.4371,-0.437,-0.437,0,0,-0.4072,-0.409,-0.4124,-0.4143,-0.4172,-0.4184,-0.4192,-0.4221,-0.4231,-0.4272,-0.4274,-0.4301,-0.4353,-0.4374,-0.4391,-0.444,-0.4441,-0.4449,-0.4471,-0.4497,-0.4502,-0.4507,-0.4525,-0.4532,-0.4454,-0.4454,-0.4454,0,-0.4086,-0.4132,-0.4141,-0.4174,-0.4192,-0.4193,-0.4228,-0.4246,-0.4284,-0.4297,-0.4288,-0.4354,-0.4373,-0.4423,-0.4435,-0.4449,-0.4459,-0.4447,-0.45,-0.4505,-0.451,-0.4528,-0.4534,-0.4455,-0.4455,-0.4454,-0.4454,0,-0.4148,-0.418,-0.4203,-0.4239,-0.426,-0.4293,-0.4308,-0.4329,-0.4333,-0.4346,-0.4388,-0.4411,-0.4446,-0.4458,-0.4462,-0.4509,-0.4504,-0.4497,-0.4483,-0.4517,-0.4534,-0.4541,-0.4456,-0.4456,-0.4455,-0.4455,0,0,-0.4198,-0.4237,-0.4246,-0.4262,-0.4294,-0.4318,-0.4352,-0.4385,-0.4402,-0.4428,-0.4457,-0.45,-0.4495,-0.4514,-0.4521,-0.4543,-0.4582,-0.4535,-0.4536,-0.4544,-0.4636,-0.4641,-0.4649,-0.4581,-0.4583,-0.4584,-0.4633,0,-0.4244,-0.4303,-0.4312,-0.4364,-0.4394,-0.4395,-0.4424,-0.4447,-0.446,-0.4487,-0.4501,-0.4532,-0.4522,-0.4534,-0.4556,-0.4572,-0.4601,-0.4569,-0.461,-0.4611,-0.4604,-0.4657,-0.4663,-0.4709,-0.464,-0.4641,-0.4642,0,-0.4306,-0.4333,-0.4388,-0.4415,-0.4428,-0.4454,-0.4485,-0.4511,-0.4536,-0.4544,-0.4566,-0.457,-0.4605,-0.4587,-0.4636,-0.4614,-0.4631,-0.4642,-0.4644,-0.4649,-0.463,-0.4666,-0.4724,-0.4731,-0.4652,-0.4651,-0.4651,0,-0.4338,-0.4387,-0.4427,-0.444,-0.4473,-0.4492,-0.4506,-0.4531,-0.455,-0.4577,-0.459,-0.4621,-0.4638,-0.4662,-0.4674,-0.466,-0.4723,-0.4706,-0.4731,-0.4731,-0.4746,-0.4745,-0.4809,-0.4754,-0.4754,-0.4754,-0.4754,0,-0.4389,-0.4423,-0.4441,-0.4466,-0.4504,-0.4514,-0.4552,-0.4566,-0.4588,-0.4615,-0.4618,-0.4644,-0.4657,-0.4686,-0.4695,-0.4735,-0.4743,-0.475,-0.4753,-0.4751,-0.475,-0.4764,-0.4761,-0.4756,-0.4755,-0.4755,-0.4755,0,-0.4432,-0.4445,-0.4489,-0.4516,-0.4523,-0.455,-0.4574,-0.4598,-0.461,-0.4645,-0.4654,-0.4673,-0.4706,-0.472,-0.4761,-0.4768,-0.4814,-0.4813,-0.4805,-0.4806,-0.4831,-0.4829,-0.4907,-0.4918,-0.4855,-0.4855,-0.4856,0,-0.4465,-0.4491,-0.4521,-0.4539,-0.4554,-0.4584,-0.4603,-0.4614,-0.4634,-0.4665,-0.4686,-0.4718,-0.4746,-0.4799,-0.4817,-0.4848,-0.4849,-0.4874,-0.4854,-0.4851,-0.4851,-0.485,-0.4853,-0.4879,-0.4879,-0.488,-0.488,0,-0.4522,-0.4527,-0.4555,-0.4585,-0.4608,-0.4632,-0.4656,-0.4671,-0.4685,-0.4708,-0.4741,-0.4762,-0.4804,-0.4837,-0.4869,-0.4885,-0.4885,-0.4886,-0.4894,-0.4893,-0.4888,-0.4892,-0.4817,-0.4885,-0.4884,-0.4884,-0.4884,-0.4883,-0.4562,-0.4585,-0.461,-0.4641,-0.4659,-0.4681,-0.4705,-0.472,-0.4748,-0.4782,-0.4787,-0.4823,-0.4848,-0.4891,-0.4908,-0.4937,-0.4931,-0.4941,-0.4945,-0.4947,-0.495,-0.4882,-0.4942,-0.4942,-0.4942,-0.4942,-0.4942,0,-0.4621,-0.4636,-0.4664,-0.4697,-0.4721,-0.4718,-0.4744,-0.4765,-0.4796,-0.4819,-0.4846,-0.4885,-0.4916,-0.4936,-0.4969,-0.4988,-0.4989,-0.4996,-0.4996,-0.5,-0.4953,-0.4943,-0.4995,-0.4995,-0.4995,-0.4995,-0.4995,-0.4995,-0.4654,-0.4693,-0.4701,-0.475,-0.4766,-0.4801,-0.4816,-0.4836,-0.4855,-0.4898,-0.4924,-0.4936,-0.4959,-0.4992,-0.5022,-0.5027,-0.5039,-0.5047,-0.5052,-0.5008,-0.5003,-0.4998,-0.4989,-0.5049,-0.5049,-0.5096,-0.5097,-0.5097]},{"header":{"parameterUnit":"m.s-1","parameterCategory":1,"la1":30.2991,"la2":30.254,"lo1":-89.0895,"lo2":-89.0444,"dy":0.0017,"dx":0.0017,"nx":28,"ny":28,"refTime":"2024-12-06T03:00:00:Z","depth":0,"parameterNumber":3,"parameterNumberName":"V-component_of_WINDS"},"data":[0,0,0,0,0,0,0,0,0,0,0,0,0,0,0,0,0,0,0,0,0,0,0,0,0,0,0,0,0,0,0,0,0,0,0,0,0,0,0,0,0,0,0,0,0,0,0,0,0,0,0,0,0,0,0,0,0,0,-5.3661,-5.3662,0,-5.3778,-5.378,-5.3781,-5.371,-5.3706,-5.3703,-5.37,-5.3814,-5.382,-5.3826,0,0,0,0,0,0,0,0,0,0,0,0,0,-5.337,-5.3376,-5.3661,-5.3662,-5.3664,-5.3778,-5.378,-5.3781,-5.371,-5.3706,-5.3702,-5.3698,-5.3812,-5.3819,-5.3827,0,0,0,0,0,0,0,0,0,0,0,0,0,-5.3493,-5.3378,-5.3661,-5.3642,-5.3642,-5.3778,-5.378,-5.3782,-5.3711,-5.3706,-5.3701,-5.3696,-5.381,-5.3819,-5.3828,-5.3987,0,0,-5.3856,-5.386,0,0,0,0,0,0,0,0,-5.3486,-5.3504,-5.3643,-5.3644,-5.3644,-5.3724,-5.3719,-5.385,-5.3712,-5.3685,-5.37,-5.3694,-5.3788,-5.3799,-5.3832,-5.3992,-5.3997,-5.3857,-5.3863,-5.3867,-5.3869,0,0,0,0,0,0,0,-5.3478,-5.3498,-5.3707,-5.3646,-5.3646,-5.3627,-5.3638,-5.3744,-5.3763,-5.3687,-5.3682,-5.3697,-5.3787,-5.3823,-5.3834,-5.3999,-5.3857,-5.3865,-5.3871,-5.3875,-5.4296,-5.4301,0,0,0,0,0,0,-5.3471,-5.3492,-5.3703,-5.3711,-5.3551,-5.3636,-5.3649,-5.3703,-5.3762,-5.3766,-5.3701,-5.3693,-5.381,-5.3823,-5.3838,-5.4028,-5.3867,-5.3875,-5.3881,-5.429,-5.4297,-5.4303,0,0,0,0,0,0,-5.3465,-5.3491,-5.3699,-5.36,-5.3625,-5.3646,-5.3708,-5.3708,-5.3744,-5.3773,-5.3775,-5.3735,-5.3806,-5.3824,-5.3951,-5.4031,-5.388,-5.3888,-5.4283,-5.4292,-5.43,-5.4411,0,0,0,0,0,0,-5.3457,-5.3489,-5.3551,-5.3602,-5.3631,-5.3812,-5.3713,-5.3714,-5.3761,-5.3752,-5.3805,-5.3809,-5.3803,-5.3937,-5.396,-5.4041,-5.3895,-5.4276,-5.4287,-5.4297,-5.44,-5.4422,-5.4441,0,0,0,0,0,-5.3447,-5.3576,-5.3554,-5.358,-5.3708,-5.3817,-5.3833,-5.3826,-5.3768,-5.383,-5.3848,-5.3807,-5.4019,-5.3951,-5.3976,-5.4061,-5.4271,-5.4284,-5.4296,-5.4391,-5.4418,-5.444,0,0,0,0,0,0,-5.3532,-5.3582,-5.3559,-5.3708,-5.3759,-5.3804,-5.3882,-5.3854,-5.392,-5.3909,-5.3895,-5.3908,-5.404,-5.4062,-5.3986,-5.4218,-5.4136,-5.4154,-5.4199,-5.4224,-5.4244,-5.4237,-5.3903,0,0,0,0,0,-5.3568,-5.3654,-5.3692,-5.382,-5.3847,-5.386,-5.3907,-5.3897,-5.3948,-5.3969,-5.3996,-5.4046,-5.4123,-5.4175,-5.4248,-5.4402,-5.4413,-5.4473,-5.4494,-5.451,-5.4526,-5.4611,-5.4638,-5.4344,-5.4344,-5.4344,0,0,-5.3643,-5.3682,-5.3736,-5.3838,-5.3876,-5.3964,-5.3879,-5.3974,-5.4039,-5.3983,-5.4105,-5.4127,-5.4181,-5.4323,-5.4386,-5.4345,-5.461,-5.4526,-5.4539,-5.4547,-5.4626,-5.4654,-5.4679,-5.4353,-5.4351,-5.435,0,0,-5.3826,-5.3863,-5.3975,-5.4015,-5.4075,-5.4083,-5.411,-5.416,-5.4173,-5.4296,-5.4256,-5.4331,-5.4465,-5.4506,-5.4544,-5.4743,-5.4708,-5.4766,-5.4873,-5.4955,-5.4978,-5.4999,-5.5071,-5.5097,-5.4782,-5.4782,-5.4783,0,-5.3912,-5.4044,-5.4035,-5.4135,-5.4181,-5.4136,-5.4249,-5.4287,-5.4367,-5.4399,-5.4353,-5.4521,-5.4554,-5.4705,-5.4754,-5.4786,-5.4816,-5.4761,-5.4976,-5.4997,-5.5016,-5.5084,-5.5111,-5.4789,-5.4789,-5.4788,-5.4787,0,-5.4147,-5.4239,-5.4321,-5.4403,-5.4457,-5.4563,-5.4569,-5.4625,-5.4611,-5.4624,-5.4749,-5.4787,-5.4868,-5.4902,-5.4888,-5.5052,-5.5025,-5.4978,-5.4895,-5.5051,-5.5115,-5.5141,-5.4799,-5.4797,-5.4795,-5.4793,0,0,-5.4386,-5.4462,-5.4493,-5.4529,-5.4592,-5.4662,-5.4765,-5.4846,-5.4895,-5.4951,-5.5037,-5.5151,-5.5109,-5.5152,-5.5142,-5.5214,-5.5371,-5.5158,-5.5159,-5.5197,-5.5554,-5.5591,-5.5621,-5.5347,-5.5352,-5.5356,-5.555,0,-5.4574,-5.4757,-5.4752,-5.4921,-5.5006,-5.4965,-5.5054,-5.5102,-5.5116,-5.5189,-5.5204,-5.5286,-5.5223,-5.5249,-5.5319,-5.5337,-5.5442,-5.5323,-5.5427,-5.5431,-5.5416,-5.5655,-5.5693,-5.5875,-5.5575,-5.5579,-5.5582,0,-5.4817,-5.4884,-5.5063,-5.5114,-5.515,-5.5231,-5.5305,-5.5376,-5.5428,-5.5433,-5.5483,-5.5461,-5.5564,-5.5478,-5.562,-5.5539,-5.5581,-5.5596,-5.5603,-5.5613,-5.5517,-5.5673,-5.5932,-5.596,-5.5621,-5.5618,-5.5616,0,-5.4976,-5.511,-5.5235,-5.5267,-5.533,-5.5388,-5.5416,-5.5464,-5.5513,-5.5577,-5.5609,-5.5683,-5.5724,-5.5781,-5.578,-5.5717,-5.5924,-5.5837,-5.5931,-5.5931,-5.5978,-5.5975,-5.6249,-5.6002,-5.6002,-5.6001,-5.6001,0,-5.5186,-5.5298,-5.5308,-5.5384,-5.5507,-5.55,-5.5622,-5.5644,-5.5687,-5.5766,-5.5733,-5.5808,-5.5801,-5.5876,-5.5875,-5.5994,-5.6012,-5.6018,-5.6017,-5.6023,-5.6022,-5.6051,-5.6039,-5.6009,-5.6007,-5.6006,-5.6004,0,-5.5385,-5.5396,-5.553,-5.5579,-5.5593,-5.5682,-5.5723,-5.5795,-5.5807,-5.5908,-5.5931,-5.5949,-5.6036,-5.604,-5.6139,-5.6138,-5.6283,-5.6266,-5.6266,-5.6264,-5.6358,-5.635,-5.6661,-5.6702,-5.6428,-5.643,-5.6433,0,-5.552,-5.5605,-5.5664,-5.5716,-5.5748,-5.5832,-5.5883,-5.5878,-5.5932,-5.5999,-5.6063,-5.6147,-5.6215,-5.6355,-5.6376,-5.6452,-5.6438,-5.6542,-5.6449,-5.6452,-5.6441,-5.6437,-5.6446,-5.656,-5.6563,-5.6566,-5.6568,0,-5.5758,-5.5759,-5.5835,-5.5914,-5.5976,-5.6036,-5.6093,-5.6136,-5.6138,-5.62,-5.629,-5.6343,-5.6445,-5.6529,-5.6603,-5.663,-5.66,-5.6597,-5.6623,-5.663,-5.6627,-5.6631,-5.6317,-5.659,-5.6588,-5.6586,-5.6585,-5.6584,-5.5929,-5.6004,-5.6058,-5.6143,-5.6185,-5.6239,-5.631,-5.6332,-5.6407,-5.6492,-5.6484,-5.6584,-5.6634,-5.6731,-5.6764,-5.6841,-5.6805,-5.6842,-5.6852,-5.6862,-5.6873,-5.6614,-5.6853,-5.6853,-5.6852,-5.6852,-5.6851,0,-5.6167,-5.62,-5.6279,-5.6361,-5.6428,-5.6395,-5.6456,-5.6514,-5.6603,-5.6653,-5.6721,-5.6824,-5.6905,-5.6933,-5.7012,-5.7068,-5.7056,-5.7089,-5.7086,-5.7093,-5.6899,-5.687,-5.7097,-5.7097,-5.7097,-5.7097,-5.7097,-5.7097,-5.6299,-5.6424,-5.6432,-5.6577,-5.6608,-5.6708,-5.6745,-5.6795,-5.6835,-5.6953,-5.7021,-5.7039,-5.708,-5.7162,-5.7235,-5.7241,-5.7272,-5.7311,-5.7311,-5.7131,-5.7106,-5.7082,-5.7055,-5.7318,-5.7318,-5.7498,-5.75,-5.7501]}]]